Regional Weather Roundup
Issued by NWS

Home | Current Version | Previous Version | Graphics & Text | Print | Product List | Glossary On
Versions: 1 2 3 4 5 6 7 8 9 10 11 12 13 14 15 16 17 18 19 20 21 22 23 24 25 26 27 28 29 30 31 32 33 34 35 36 37 38 39 40 41 42 43 44 45 46 47 48 49 50
861
ASUS43 KMPX 251101
RWRMN
WEATHER ROUNDUP FOR MINNESOTA
NATIONAL WEATHER SERVICE TWIN CITIES/CHANHASSEN MN
600 AM CDT TUE APR 25 2017


NOTE: "FAIR" INDICATES FEW OR NO CLOUDS BELOW 12,000 FEET WITH NO
SIGNIFICANT WEATHER AND/OR OBSTRUCTIONS TO VISIBILITY. N/A MEANS
CURRENT SKY AND/OR WEATHER CONDITIONS ARE NOT AVAILABLE.

MNZ060>063-068>070-251200-
   Twin Cities Metro

CITY           SKY/WX    TMP DP  RH WIND       PRES   REMARKS
TWIN CITIES    MOCLDY    58  36  43 SE8       29.49S
ST PAUL        CLOUDY    58  39  49 SE5       29.49S
CRYSTAL        CLOUDY    57  37  47 S5        29.47S
BLAINE         CLOUDY    61  37  41 SE8       29.48S
LAKEVILLE      CLOUDY    54  39  58 CALM      29.49S
EDEN PRAIRIE   CLOUDY    59  38  45 SW8       29.48R
SOUTH ST PAUL  CLOUDY    58  38  47 S3        29.49F
LAKE ELMO      CLOUDY    59  36  41 SE6       29.50F
$$
MNZ001>005-007-008-013>017-022>024-027-028-251200-
   Northwest Minnesota

CITY           SKY/WX    TMP DP  RH WIND       PRES   REMARKS
BEMIDJI        CLOUDY    36  36  99 N9        29.62S FOG
HALLOCK        CLOUDY    30  27  86 N17       29.78R WCI  18
ROSEAU         CLOUDY    30  27  86 N15       29.75R WCI  19
WARROAD        CLOUDY    30  27  86 N18       29.74R WCI  18
THIEF RVR FALL CLOUDY    31  30  96 N18       29.70S WCI  19
CROOKSTON      CLOUDY    32  30  93 N16       29.72S WCI  21
FOSSTON        CLOUDY    30  30 100 N20       29.66R FOG     WCI  18
DETROIT LAKES  FOG       36  36 100 N17       29.62R VSB 3/4
MOORHEAD       CLOUDY    32  30  93 N20       29.67S FOG     WCI  20
PARK RAPIDS    CLOUDY    41  37  86 N14       29.58R
MAHNOMEN       CLOUDY    33  32  98 N18       29.64R FOG     WCI  22
$$
MNZ006-009>011-018-025>026-251200-
   North Central Minnesota

CITY           SKY/WX    TMP DP  RH WIND       PRES   REMARKS
BAUDETTE       CLOUDY    32  29  88 N13       29.69R WCI  22
FLAG ISLAND    CLOUDY    30  27  86 N18       29.74S WCI  18
INTL FALLS     CLOUDY    35  33  92 NE9       29.65R WCI  28
WASKISH        CLOUDY    36  34  93 N7        29.66R
BIG FORK       CLOUDY    36  36 100 N6        29.62R
LONGVILLE      CLOUDY    39  37  93 N5        29.57S
GRAND RAPIDS   LGT RAIN  39  36  89 N8        29.59R
CRANE LAKE     CLOUDY    36  34  93 CALM      29.64S
ORR            CLOUDY    36  34  93 N3        29.59R
COOK           CLOUDY    37  36  93 N5        29.60S
WALKER         CLOUDY    38  37  94 N7        29.59S
$$
MNZ012-019>021-037-251200-
   Northeast Minnesota

CITY           SKY/WX    TMP DP  RH WIND       PRES   REMARKS
DULUTH         CLOUDY    40  38  93 SE6       29.57S
ELY            LGT RAIN  39  37  93 CALM      29.59S
HIBBING        LGT RAIN  37  37 100 N3        29.56F
EVELETH        MOCLDY    39  37  94 NE5       29.58S
DULUTH HARBOR  LGT RAIN  39  37  93 E15       29.60S
TWO HARBORS    CLOUDY    45  39  81 N5        29.56S
SILVER BAY     DRIZZLE   43  37  81 N5        29.58S
GRAND MARAIS     N/A     42  40  92 NE5       29.63F
G MARAIS ARPRT DRIZZLE   43  36  75 E7        29.63F
$$
MNZ029>031-032-039>041-046>048-054>057-064-251200-
   West Central Minnesota

CITY           SKY/WX    TMP DP  RH WIND       PRES   REMARKS
FERGUS FALLS   CLOUDY    36  36 100 N12G24    29.60F FOG
WHEATON        CLOUDY    34  32  93 NW17G26   29.65S FOG     WCI  23
MORRIS         CLOUDY    36  34  93 NW20G26   29.57F FOG
ALEXANDRIA     FOG       41  41 100 NW12      29.55S VSB 1/2
ELBOW LAKE     FOG       35  35 100 NW17      29.57F VSB 3/4 WCI  25
WADENA         CLOUDY    43  39  87 N10       29.57R
GLENWOOD       FOG       43  43 100 NW10      29.55S VSB 1/2
APPLETON       CLOUDY    37  36  93 NW13G21   29.57F
BENSON         CLOUDY    39  36  87 N15G23    29.57F FOG
ORTONVILLE     LGT SNOW  36  32  87 NW21      29.60S
MADISON        CLOUDY    39  39 100 NW22      29.59R FOG
WILLMAR        FOG       41  39  93 NW14      29.55S VSB 3/4
$$
MNZ033>034-036-042>043-049>051-058-059-251200-
   Central Minnesota

CITY           SKY/WX    TMP DP  RH WIND       PRES   REMARKS
ST CLOUD       CLOUDY    50  44  80 N5        29.49R
SAUK CENTRE    CLOUDY    46  43  90 NW17      29.53R
PAYNESVILLE    FOG       44  44 100 NW10      29.52F VSB 3/4
AITKIN         CLOUDY    41  36  81 N3        29.51F
PINE RIVER     CLOUDY    39  39 100 N12       29.60R
BRAINERD       CLOUDY    41  38  89 N8        29.54R
STAPLES        CLOUDY    39  39 100 N10       29.56R
LONG PRAIRIE   CLOUDY    43  41  93 W12       29.54R
LITTLE FALLS   CLOUDY    45  41  87 NW5       29.53R
LITCHFIELD     CLOUDY    45  45 100 NW10      29.51S FOG
BUFFALO        CLOUDY    51  45  78 W8        29.50R
MAPLE LAKE     MOCLDY    50  47  91 W7        29.50R
HUTCHINSON     CLOUDY    44  43  99 W10       29.52F FOG
$$
MNZ037-044-045-052-053-251200-
   East Central Minnesota

CITY           SKY/WX    TMP DP  RH WIND       PRES   REMARKS
PRINCETON      CLOUDY    48  43  81 CALM      29.50R
MORA           CLOUDY    43  36  75 CALM      29.52S
CAMBRIDGE      MOCLDY    52  41  66 NE3       29.47S
RUSH CITY      CLOUDY    45  40  81 NE3       29.51S
MOOSE LAKE     CLOUDY    37  36  93 NE5       29.53S
HINCKLEY       CLOUDY    43  37  81 NE6       29.52S
CLOQUET        DRIZZLE   39  36  87 E8        29.55F
MCGREGOR       CLOUDY    39  37  93 NE5       29.53F
$$
MNZ071>073-080-081-089-090-097-098-251200-
   Southwest Minnesota

CITY           SKY/WX    TMP DP  RH WIND       PRES   REMARKS
MONTEVIDEO     CLOUDY    37  37 100 N15G21    29.57R FOG
GRANITE FALLS  CLOUDY    38  37  96 NW21      29.57F FOG
CANBY          CLOUDY    37  36  99 NW17G23   29.60S FOG
MARSHALL       CLOUDY    37  36  96 N18       29.57S FOG
REDWOOD FALLS  CLOUDY    39  37  92 NW12G18   29.55R FOG
OLIVIA         CLOUDY    39  37  93 NW17      29.53S FOG
PIPESTONE      CLOUDY    39  36  87 N12G18    29.54F FOG
WINDOM         MIX PCPN  39  39 100 NW13G21   29.54F VSB 1/2
WORTHINGTON    CLOUDY    38  38 100 NW15      29.55S FOG
JACKSON        FOG       39  37  93 NW13      29.54R VSB 1
TRACY          FOG       38  38  99 NW13      29.57S VSB 1
SLAYTON        FOG       36  36 100 N15       29.57R VSB 3/4
$$
MNZ065>067-074>077-082>085-091>093-251200-
   South Central Minnesota

CITY           SKY/WX    TMP DP  RH WIND       PRES   REMARKS
MANKATO        CLOUDY    43  42  97 NW12      29.53R
NEW ULM        CLOUDY    41  39  93 NW15      29.54S FOG
ST JAMES       CLOUDY    41  41 100 W16       29.54S FOG
FAIRMONT       CLOUDY    43  41  93 NW15      29.53S
GLENCOE        CLOUDY    45  45 100 W9        29.50S FOG
FARIBAULT      CLOUDY    57  37  47 S6        29.50S
OWATONNA       PTCLDY    57  36  44 S12       29.50S
WASECA         MOCLDY    52  43  71 W7        29.52R
ALBERT LEA     CLEAR     52  36  54 SE6       29.50F
$$
MNZ078>079-086>088-094>096-251200-
   Southeast Minnesota

CITY           SKY/WX    TMP DP  RH WIND       PRES   REMARKS
ROCHESTER      CLOUDY    56  36  47 S13       29.53F
RED WING       CLOUDY    61  32  33 SE7       29.51S
STANTON        CLOUDY    59  36  41 S5        29.49R
DODGE CENTER   CLOUDY    54  36  50 SE8       29.52S
WINONA         CLOUDY    59  36  41 E5        29.55S
AUSTIN         CLOUDY    54  36  50 SE5       29.52F
PRESTON        CLOUDY    55  33  44 S6        29.55S
$$
ABBREVIATIONS USED IN REMARKS
   TC - TEMPERATURES IN CELSIUS
  WCI - WIND CHILL INDEX
   HX - HEAT INDEX
  VSB - VISIBILITY
$$




USA.gov is the U.S. government's official web portal to all federal, state and local government web resources and services.